AKT181 CYSJ-CYHZ

Flight info

Callsign AKT181
Flight time 0h 20m
Altitude 15000
Route YHZ
Aircraft B737/M-SDE2E3FGHIRWXY/LB1

Departure

Time 2026-04-20 03:21
Airport Saint John Airport (CYSJ)

Arrival

Time 2026-04-20 03:42
Airport Halifax / Stanfield International Airport (CYHZ)
Time Latitude Longitude Altitude Speed Heading
2026-04-20 02:40 45.32894 -65.89143 344 ft 0 kts 137°
2026-04-20 03:11 45.32893 -65.89141 344 ft 1 kts 136°
2026-04-20 03:12 45.32870 -65.89111 352 ft 7 kts 136°
2026-04-20 03:12 45.32828 -65.89067 347 ft 8 kts 144°
2026-04-20 03:12 45.32792 -65.89001 336 ft 10 kts 123°
2026-04-20 03:12 45.32749 -65.88905 338 ft 13 kts 123°
2026-04-20 03:13 45.32699 -65.88789 334 ft 15 kts 120°
2026-04-20 03:13 45.32644 -65.88649 332 ft 17 kts 121°
2026-04-20 03:13 45.32582 -65.88499 327 ft 18 kts 120°
2026-04-20 03:13 45.32496 -65.88371 323 ft 18 kts 149°
2026-04-20 03:14 45.32392 -65.88290 321 ft 17 kts 152°
2026-04-20 03:14 45.32289 -65.88281 320 ft 15 kts 198°
2026-04-20 03:14 45.32188 -65.88256 319 ft 15 kts 163°
2026-04-20 03:14 45.32093 -65.88214 319 ft 14 kts 163°
2026-04-20 03:15 45.32069 -65.88204 318 ft 0 kts 163°
2026-04-20 03:15 45.32030 -65.88185 319 ft 8 kts 161°
2026-04-20 03:15 45.31990 -65.88166 319 ft 0 kts 160°
2026-04-20 03:17 45.31979 -65.88160 320 ft 6 kts 161°
2026-04-20 03:17 45.31903 -65.88154 321 ft 16 kts 180°
2026-04-20 03:17 45.31766 -65.88197 322 ft 25 kts 207°
2026-04-20 03:17 45.31597 -65.88333 326 ft 30 kts 211°
2026-04-20 03:18 45.31412 -65.88490 333 ft 32 kts 211°
2026-04-20 03:18 45.31226 -65.88647 337 ft 29 kts 210°
2026-04-20 03:18 45.31055 -65.88793 346 ft 28 kts 211°
2026-04-20 03:18 45.30897 -65.88925 352 ft 26 kts 211°
2026-04-20 03:19 45.30726 -65.89072 353 ft 31 kts 210°
2026-04-20 03:19 45.30537 -65.89230 356 ft 32 kts 211°
2026-04-20 03:19 45.30354 -65.89386 359 ft 28 kts 210°
2026-04-20 03:19 45.30266 -65.89441 363 ft 8 kts 227°
2026-04-20 03:20 45.30278 -65.89457 362 ft 3 kts 15°
2026-04-20 03:20 45.30281 -65.89453 361 ft 0 kts 33°
2026-04-20 03:21 45.30508 -65.89250 360 ft 81 kts 31°
2026-04-20 03:21 45.31236 -65.88645 370 ft 158 kts 29°
2026-04-20 03:21 45.32220 -65.87775 1169 ft 173 kts 26°
2026-04-20 03:21 45.33227 -65.86705 2190 ft 188 kts 33°
2026-04-20 03:22 45.34320 -65.85441 2807 ft 221 kts 34°
2026-04-20 03:22 45.35621 -65.84020 3361 ft 249 kts 34°
2026-04-20 03:22 45.37042 -65.82512 4148 ft 262 kts 37°
2026-04-20 03:22 45.38186 -65.80413 4884 ft 276 kts 74°
2026-04-20 03:23 45.38290 -65.77775 5886 ft 264 kts 112°
2026-04-20 03:23 45.37761 -65.75179 6619 ft 281 kts 117°
2026-04-20 03:23 45.37169 -65.72505 7745 ft 289 kts 118°
2026-04-20 03:23 45.36576 -65.69744 9115 ft 292 kts 118°
2026-04-20 03:24 45.35996 -65.66940 10315 ft 299 kts 117°
2026-04-20 03:24 45.35402 -65.64025 11010 ft 324 kts 117°
2026-04-20 03:24 45.34753 -65.60779 11559 ft 350 kts 115°
2026-04-20 03:24 45.34110 -65.57405 12635 ft 356 kts 115°
2026-04-20 03:25 45.33475 -65.53967 13815 ft 359 kts 114°
2026-04-20 03:25 45.32853 -65.50558 14694 ft 365 kts 114°
2026-04-20 03:25 45.32220 -65.47079 14971 ft 361 kts 114°
2026-04-20 03:25 45.31594 -65.43622 14989 ft 360 kts 114°
2026-04-20 03:26 45.30952 -65.40143 15017 ft 375 kts 115°
2026-04-20 03:26 45.30242 -65.36434 15023 ft 403 kts 114°
2026-04-20 03:26 45.29486 -65.32479 15015 ft 424 kts 114°
2026-04-20 03:26 45.28722 -65.28395 14981 ft 428 kts 113°
2026-04-20 03:27 45.27975 -65.24314 14986 ft 426 kts 113°
2026-04-20 03:27 45.27232 -65.20242 14990 ft 426 kts 113°
2026-04-20 03:27 45.26493 -65.16211 14987 ft 426 kts 113°
2026-04-20 03:27 45.25741 -65.12131 14989 ft 426 kts 113°
2026-04-20 03:28 45.24983 -65.08039 14992 ft 426 kts 113°
2026-04-20 03:28 45.24231 -65.03997 14993 ft 426 kts 113°
2026-04-20 03:28 45.22706 -64.95844 14993 ft 426 kts 113°
2026-04-20 03:29 45.21952 -64.91829 14985 ft 424 kts 113°
2026-04-20 03:29 45.21190 -64.87774 14990 ft 424 kts 113°
2026-04-20 03:29 45.20427 -64.83733 14991 ft 424 kts 113°
2026-04-20 03:29 45.19663 -64.79690 14987 ft 424 kts 113°
2026-04-20 03:30 45.18897 -64.75646 14986 ft 424 kts 114°
2026-04-20 03:30 45.18131 -64.71614 14982 ft 424 kts 114°
2026-04-20 03:30 45.17374 -64.67633 14983 ft 424 kts 114°
2026-04-20 03:30 45.16605 -64.63602 14987 ft 424 kts 114°
2026-04-20 03:31 45.15833 -64.59557 14985 ft 424 kts 114°
2026-04-20 03:31 45.15062 -64.55529 14968 ft 423 kts 113°
2026-04-20 03:31 45.14288 -64.51494 14965 ft 424 kts 113°
2026-04-20 03:31 45.13513 -64.47462 14973 ft 424 kts 113°
2026-04-20 03:32 45.12749 -64.43491 14975 ft 424 kts 113°
2026-04-20 03:32 45.11969 -64.39453 14970 ft 424 kts 114°
2026-04-20 03:32 45.11190 -64.35425 14970 ft 423 kts 114°
2026-04-20 03:32 45.10409 -64.31395 14973 ft 423 kts 114°
2026-04-20 03:33 45.09641 -64.27405 14964 ft 408 kts 113°
2026-04-20 03:33 45.09017 -64.23661 14977 ft 381 kts 111°
2026-04-20 03:33 45.08432 -64.20142 14799 ft 354 kts 113°
2026-04-20 03:33 45.07833 -64.16893 14643 ft 328 kts 115°
2026-04-20 03:34 45.07237 -64.13798 13945 ft 323 kts 115°
2026-04-20 03:34 45.06639 -64.10751 13234 ft 319 kts 115°
2026-04-20 03:34 45.06058 -64.07774 12466 ft 315 kts 115°
2026-04-20 03:34 45.05470 -64.04756 11418 ft 320 kts 115°
2026-04-20 03:35 45.04885 -64.01725 10719 ft 315 kts 114°
2026-04-20 03:35 45.04324 -63.98780 10005 ft 311 kts 114°
2026-04-20 03:35 45.03767 -63.95846 9255 ft 307 kts 114°
2026-04-20 03:35 45.03215 -63.92944 8486 ft 303 kts 114°
2026-04-20 03:36 45.02669 -63.90079 7724 ft 299 kts 114°
2026-04-20 03:36 45.02136 -63.87293 6975 ft 295 kts 114°
2026-04-20 03:36 45.01602 -63.84504 6256 ft 291 kts 114°
2026-04-20 03:36 45.01077 -63.81761 5513 ft 287 kts 114°
2026-04-20 03:37 45.00555 -63.79040 4771 ft 286 kts 114°
2026-04-20 03:37 45.00035 -63.76334 4003 ft 284 kts 114°
2026-04-20 03:37 44.99530 -63.73701 3540 ft 275 kts 114°
2026-04-20 03:37 44.99001 -63.71221 3338 ft 248 kts 124°
2026-04-20 03:38 44.98172 -63.69234 3229 ft 225 kts 136°
2026-04-20 03:38 44.97279 -63.67523 3123 ft 208 kts 137°
2026-04-20 03:38 44.96456 -63.65905 2876 ft 198 kts 137°
2026-04-20 03:38 44.95689 -63.64372 2613 ft 189 kts 137°
2026-04-20 03:39 44.94948 -63.62892 2377 ft 180 kts 139°
2026-04-20 03:39 44.94237 -63.61476 2159 ft 175 kts 139°
2026-04-20 03:39 44.93546 -63.60095 1925 ft 170 kts 139°
2026-04-20 03:39 44.92870 -63.58749 1713 ft 163 kts 137°
2026-04-20 03:40 44.92250 -63.57505 1477 ft 147 kts 138°
2026-04-20 03:40 44.91685 -63.56375 1285 ft 136 kts 134°
2026-04-20 03:40 44.91147 -63.55306 1103 ft 133 kts 134°
2026-04-20 03:40 44.90615 -63.54242 1005 ft 134 kts 133°
2026-04-20 03:41 44.90088 -63.53149 798 ft 133 kts 129°
2026-04-20 03:41 44.89511 -63.52108 594 ft 136 kts 134°
2026-04-20 03:41 44.89014 -63.51022 469 ft 121 kts 127°
2026-04-20 03:41 44.88621 -63.50241 448 ft 66 kts 125°
2026-04-20 03:42 44.88426 -63.49853 447 ft 36 kts 124°
2026-04-20 03:42 44.88310 -63.49619 448 ft 28 kts 126°
2026-04-20 03:42 44.88204 -63.49407 449 ft 24 kts 125°
2026-04-20 03:42 44.88115 -63.49388 449 ft 14 kts 224°
2026-04-20 03:43 44.88087 -63.49510 450 ft 13 kts 262°
2026-04-20 03:43 44.88099 -63.49627 450 ft 12 kts 308°
2026-04-20 03:43 44.88151 -63.49724 449 ft 14 kts 306°
2026-04-20 03:43 44.88223 -63.49866 449 ft 21 kts 306°
2026-04-20 03:44 44.88315 -63.50050 450 ft 24 kts 305°
2026-04-20 03:44 44.88374 -63.50215 450 ft 13 kts 263°
2026-04-20 03:44 44.88357 -63.50334 451 ft 12 kts 270°
2026-04-20 03:44 44.88355 -63.50455 451 ft 12 kts 266°
2026-04-20 03:45 44.88346 -63.50572 451 ft 12 kts 262°
2026-04-20 03:45 44.88336 -63.50659 451 ft 0 kts 260°
2026-04-20 03:45 44.88335 -63.50674 449 ft 5 kts 261°
2026-04-20 03:45 44.88329 -63.50760 451 ft 13 kts 265°
2026-04-20 03:46 44.88318 -63.50924 449 ft 20 kts 266°
2026-04-20 03:46 44.88360 -63.51098 450 ft 20 kts 309°
2026-04-20 03:46 44.88458 -63.51226 451 ft 19 kts 337°
2026-04-20 03:46 44.88560 -63.51241 451 ft 1 kts 351°
2026-04-20 03:47 44.88571 -63.51244 451 ft 3 kts 350°
2026-04-20 03:47 44.88602 -63.51253 449 ft 6 kts 347°
2026-04-20 03:47 44.88650 -63.51279 451 ft 8 kts 308°
2026-04-20 03:47 44.88644 -63.51357 451 ft 7 kts 258°
2026-04-20 03:48 44.88641 -63.51376 451 ft 0 kts 258°